Wind_Speed
11 11 11 11 11 11 11 11 11 11 11 11 11 11 11 11 11 11 12 12 12 12 12 12 12 13 13 13 13 14 14 13 13 12 11 13 15 13 13 13 13 13 12 13 13 13 12 11 11 11 11 11 12 12 13 14 14 15 16 17 17 15 13 12 12 14 16 16 16 17 18 20 20 19 22 23 23 23 23 21 20 20 20 19 18 18 18 18
12 12 12 12 12 12 12 12 13 13 13 13 13 13 13 13 13 13 13 13 13 14 14 14 14 14 15 15 15 16 16 15 15 14 13 14 15 16 16 16 16 15 15 15 15 15 15 14 14 13 13 13 13 14 14 15 15 16 18 20 18 14 13 13 14 16 17 19 19 19 19 21 20 20 23 25 24 24 24 21 20 21 19 19 19 18 18 18
14 14 14 14 14 14 14 14 14 14 14 14 15 15 15 15 15 15 15 14 15 15 15 15 15 16 16 16 17 17 17 17 16 15 15 15 16 17 18 18 18 18 17 17 17 17 17 17 17 16 15 15 15 15 16 16 17 18 19 21 18 15 16 14 15 17 18 21 22 21 21 21 20 21 24 25 26 25 22 20 21 22 18 18 20 20 20 20
15 15 15 16 15 15 15 15 16 16 16 16 16 16 17 17 17 17 17 17 17 16 16 16 16 17 17 17 18 18 19 18 17 17 17 17 16 17 18 19 19 19 19 19 19 19 19 19 19 19 18 17 17 17 17 17 19 21 22 22 19 18 20 16 16 19 19 21 23 22 22 22 20 22 24 25 28 21 15 18 21 20 18 19 22 23 23 23
17 17 17 17 17 17 17 17 17 17 17 17 18 18 18 19 19 19 19 19 19 19 18 18 18 18 18 18 19 19 20 17 16 17 16 16 16 16 17 17 18 18 18 19 20 20 21 21 21 21 21 20 19 19 18 17 20 24 24 22 21 22 23 17 16 19 20 21 23 23 23 23 21 23 23 25 28 17 13 19 21 20 20 21 24 24 24 24
18 18 18 18 18 18 18 18 18 18 18 18 19 19 19 20 20 20 21 21 21 21 21 20 20 20 20 20 20 20 21 16 14 15 14 14 14 14 14 15 16 17 17 19 20 21 22 23 23 23 23 23 23 22 21 20 21 26 26 24 22 23 25 20 18 21 22 23 23 23 25 25 23 23 24 27 26 16 15 21 21 20 20 22 25 25 25 24
19 19 19 19 19 19 19 19 19 19 19 20 20 20 21 21 21 22 22 22 22 22 22 22 21 22 22 22 22 23 23 19 16 19 18 17 16 16 17 17 18 20 20 20 21 22 23 25 25 25 25 25 25 24 24 24 24 27 28 26 25 25 27 24 23 24 24 24 24 25 26 25 23 25 28 28 23 16 16 19 20 20 20 22 25 24 25 25
21 20 20 20 20 20 20 20 20 20 20 21 21 21 22 22 23 23 23 23 23 23 23 23 23 23 23 24 23 25 26 20 19 22 22 21 21 20 21 21 22 22 22 22 22 23 25 26 25 25 27 26 26 27 26 26 27 29 29 28 28 29 28 27 27 27 27 27 27 28 27 24 24 28 32 30 20 14 16 19 21 22 22 24 25 25 25 24
22 22 22 22 22 22 22 22 22 22 22 22 23 23 23 24 24 24 24 24 24 25 24 24 25 24 25 25 25 28 25 19 20 22 22 22 22 22 22 22 23 23 22 22 22 23 24 25 24 25 26 27 28 28 28 29 30 30 29 30 31 31 30 30 30 30 31 31 30 31 29 26 26 31 36 31 20 15 17 21 22 23 25 26 27 27 26 24
24 24 24 24 24 24 24 24 24 23 24 24 24 24 25 25 26 26 26 26 26 27 26 26 26 26 27 25 28 31 23 18 22 22 22 21 21 21 22 22 23 23 23 24 24 24 24 24 24 25 26 27 29 29 29 30 31 31 31 33 33 34 33 33 33 32 34 33 33 34 32 30 29 34 37 28 21 20 22 23 23 24 25 26 27 27 27 26
25 25 25 25 25 25 25 25 25 25 25 25 25 25 26 26 27 27 27 27 27 28 28 28 28 29 29 28 32 31 22 21 25 25 24 23 21 22 23 25 25 25 26 26 26 25 26 25 25 25 25 27 28 29 30 31 32 32 33 36 35 36 36 35 35 34 35 35 35 37 37 34 31 35 38 30 26 27 27 26 26 26 25 25 25 25 26 26
27 27 27 27 27 27 26 26 26 26 26 26 26 26 27 27 28 28 28 28 29 29 30 29 30 30 31 32 33 29 25 26 27 26 26 25 24 26 27 28 28 28 29 29 28 28 28 28 28 26 25 27 28 29 30 31 32 32 34 37 37 38 38 36 36 36 37 37 37 38 39 38 35 37 38 33 30 31 31 31 30 29 27 25 26 26 27 27
28 28 29 28 29 29 28 29 28 28 28 27 28 28 28 29 29 29 29 29 29 30 31 31 31 31 33 34 31 28 28 28 28 27 26 25 26 27 28 30 29 30 30 30 30 30 30 30 29 28 26 28 28 29 32 33 34 34 35 39 40 41 40 37 36 36 37 38 39 38 40 43 41 38 37 34 33 35 36 36 34 33 31 30 30 30 30 30
29 29 29 29 30 30 30 30 30 30 30 30 30 30 30 30 31 31 30 31 31 31 31 32 32 32 35 34 29 29 29 28 29 27 26 27 28 29 29 30 31 31 32 32 32 31 32 31 30 29 28 28 28 30 34 35 35 35 37 40 40 41 41 38 36 38 39 40 41 40 42 48 45 39 37 35 36 39 41 40 38 37 36 36 35 35 35 33
28 29 29 29 29 29 30 30 31 30 30 31 31 31 31 31 32 32 32 33 33 33 33 33 34 34 38 36 31 32 30 27 26 25 26 28 27 28 30 30 31 32 32 32 32 31 31 31 30 29 28 28 28 32 35 35 34 34 37 40 39 40 42 40 36 37 40 41 43 41 43 49 47 42 39 39 41 43 44 44 42 42 40 39 39 37 37 37
27 27 27 27 27 27 28 28 29 29 29 30 30 30 30 31 32 32 33 34 34 35 35 36 35 36 39 37 32 31 29 26 25 24 26 26 27 28 30 31 31 31 32 32 32 32 32 31 29 28 27 26 28 33 35 34 35 36 37 40 39 40 43 41 36 35 39 43 46 44 45 50 49 45 42 41 44 46 47 47 45 44 43 42 42 41 39 39
26 26 26 26 25 26 26 26 26 26 26 27 27 27 28 28 29 30 31 32 33 34 34 36 36 38 41 37 34 32 29 28 27 26 26 25 26 28 29 30 30 30 31 31 31 32 33 32 30 28 27 27 31 35 32 29 35 38 38 40 40 39 39 40 39 37 38 43 48 48 49 54 52 48 46 44 44 47 49 48 47 46 45 45 44 43 42 40
26 26 26 25 25 25 25 25 25 24 24 24 25 25 25 26 26 28 29 30 31 32 33 34 33 37 38 34 32 31 28 28 28 26 26 26 27 28 29 30 30 30 30 30 31 32 31 30 29 27 26 29 34 37 33 30 36 39 39 40 40 39 39 40 41 40 39 44 48 50 53 57 55 51 48 45 43 47 49 49 49 48 47 46 46 45 43 42
26 26 26 25 25 25 25 25 24 24 24 24 25 25 25 26 27 28 28 29 30 30 32 32 31 34 35 31 30 30 29 30 30 30 31 31 31 31 32 33 33 34 35 35 35 35 33 32 31 29 31 36 37 38 37 36 38 39 39 39 40 41 42 42 43 41 39 45 49 49 54 57 54 51 49 46 44 46 49 49 50 49 48 47 46 45 43 42
26 26 26 26 26 25 25 25 25 25 25 24 25 26 27 28 28 29 29 30 30 30 31 32 33 34 34 32 30 29 29 30 30 31 32 33 34 35 36 36 38 39 38 38 38 37 36 37 38 38 39 40 38 37 38 38 37 37 38 39 40 43 45 44 42 40 38 47 53 49 52 56 53 51 48 46 45 45 47 48 49 49 47 46 44 43 42 39
26 26 26 26 26 26 26 25 25 26 26 26 26 26 27 28 30 31 33 33 31 31 33 33 35 37 35 32 31 30 30 30 30 31 32 33 34 36 38 38 40 41 39 37 37 37 38 42 44 42 41 39 37 36 37 38 36 37 38 39 42 43 46 45 42 41 39 46 54 48 50 56 53 51 48 45 46 46 46 46 47 47 46 44 42 40 38 35
26 26 26 26 26 26 26 26 26 26 27 27 26 27 28 28 30 32 35 38 36 33 35 35 37 40 36 32 32 31 32 33 32 32 31 31 34 37 39 40 42 42 39 36 36 39 43 47 45 39 36 35 34 33 34 35 35 35 36 39 43 43 46 49 44 41 39 43 50 49 53 59 54 51 49 46 47 46 43 43 43 44 44 42 40 38 37 37
25 25 25 25 26 25 25 26 25 25 26 26 26 27 27 28 29 31 35 40 41 37 36 36 38 40 37 33 32 32 36 37 35 33 31 32 35 35 38 41 42 42 40 38 39 42 46 46 40 34 32 33 34 33 31 32 36 38 38 40 45 44 44 49 46 42 40 42 47 49 56 63 57 52 49 43 44 44 40 41 41 41 42 41 40 39 37 38
24 24 23 23 24 23 23 24 24 23 23 24 24 25 26 27 27 30 34 40 45 42 37 37 39 39 35 32 32 33 36 37 36 35 32 33 35 35 39 41 41 42 42 41 41 46 49 44 39 37 38 39 39 38 35 36 40 43 43 42 45 44 42 47 47 43 42 42 42 43 51 62 50 36 38 41 45 47 43 42 40 39 41 39 38 36 33 34
22 22 22 21 21 21 21 22 23 22 22 22 23 23 24 25 26 30 33 38 45 44 38 36 36 34 30 29 30 31 36 37 36 36 35 35 35 35 38 38 39 42 41 40 41 47 49 42 39 40 41 40 40 41 36 35 41 45 45 40 40 42 41 42 41 38 38 33 29 24 26 41 38 28 41 51 49 46 41 39 39 39 36 27 23 25 24 24
22 22 21 21 21 21 20 22 23 23 24 24 24 24 25 26 27 29 33 38 44 42 33 26 23 22 20 19 19 23 29 29 28 30 32 32 32 34 37 37 38 39 39 38 39 44 44 38 36 37 37 36 36 37 34 31 38 45 42 35 35 37 38 38 34 31 29 23 22 18 10 27 50 50 47 45 39 37 35 33 33 29 19 13 17 22 19 17
24 23 23 23 23 23 23 24 24 26 28 27 26 27 27 28 28 28 30 28 29 27 17 9 7 9 10 10 10 14 18 17 15 17 20 21 24 28 32 35 35 34 36 35 35 38 38 34 33 32 32 31 31 32 30 28 34 42 39 33 32 33 33 34 30 27 27 29 31 25 14 19 47 57 42 34 33 30 28 23 18 9 4 16 28 22 13 13
26 26 26 26 27 27 26 26 27 29 31 30 29 29 29 28 28 27 22 11 11 13 8 4 5 7 9 10 11 12 14 14 12 13 14 15 19 23 27 31 31 32 34 34 38 39 36 34 35 34 33 32 32 31 30 28 31 37 36 33 32 31 32 31 30 28 28 32 26 14 9 10 34 58 46 30 23 17 17 14 3 4 6 28 32 18 12 17
29 29 29 29 31 30 28 27 28 30 32 32 31 30 29 28 27 25 15 7 10 12 9 10 11 11 13 14 15 17 19 20 19 19 20 21 22 23 25 26 26 29 30 33 40 39 35 36 38 37 37 35 34 32 32 30 30 32 32 32 31 29 30 28 28 30 24 25 18 8 8 5 28 59 40 15 12 10 9 3 7 2 18 29 23 17 22 28
33 32 30 30 32 30 29 27 25 28 30 29 29 29 28 26 25 19 10 11 13 12 14 16 14 14 16 17 19 21 22 23 24 24 25 25 24 24 25 24 24 27 29 31 37 37 35 37 40 40 38 36 34 33 33 32 30 31 29 31 31 28 30 26 26 25 13 16 21 17 16 9 18 37 21 6 8 2 4 5 3 16 23 16 13 22 34 38
31 31 31 31 30 29 29 26 22 25 26 25 25 25 24 22 19 11 8 15 18 16 20 20 15 15 18 20 21 21 23 23 25 25 24 24 24 24 24 22 22 24 29 33 35 35 35 37 39 38 35 34 33 32 34 33 32 31 29 30 28 22 21 17 15 12 3 11 22 19 17 14 18 23 12 6 6 5 8 14 20 26 18 7 11 27 38 37
30 30 31 32 32 30 30 27 24 24 24 24 23 23 22 17 16 21 21 19 13 7 8 7 5 8 10 13 15 16 18 19 21 21 21 22 22 24 23 23 24 24 27 32 33 34 38 39 37 35 34 32 30 30 32 32 33 33 32 29 19 9 8 5 3 3 6 16 22 13 8 17 36 45 36 30 28 26 30 30 25 20 11 11 18 28 34 25
32 33 34 35 35 34 33 32 30 27 25 25 23 24 22 12 17 30 31 24 13 8 9 9 9 11 12 15 16 15 18 19 20 21 23 24 26 29 28 28 29 28 29 32 34 35 37 38 38 35 35 33 30 30 30 31 31 30 31 28 16 5 2 3 4 2 8 19 23 17 13 18 37 46 40 37 35 28 25 25 25 21 18 26 31 29 26 17
36 37 38 39 40 39 37 35 33 31 28 27 26 25 22 20 27 33 32 31 28 25 27 27 28 28 28 28 26 24 25 26 27 27 28 29 31 33 34 32 31 31 33 33 34 32 26 29 34 31 29 31 31 29 26 27 27 28 30 27 25 21 11 4 5 5 8 13 13 11 12 14 24 30 30 32 32 29 27 31 39 40 37 36 30 21 17 14
40 41 42 42 43 42 39 35 32 30 27 28 28 26 28 33 36 34 34 35 34 33 35 35 34 34 34 33 32 30 28 26 27 27 27 29 31 33 33 31 30 30 30 28 30 29 24 31 38 30 26 30 29 26 25 24 23 26 27 25 30 34 28 19 19 21 16 9 8 13 17 28 42 48 50 50 50 48 42 41 40 36 29 21 14 14 15 17
44 44 45 45 45 42 38 35 32 29 28 28 29 32 40 42 38 34 34 32 30 29 29 28 28 30 30 29 28 25 22 22 23 24 26 30 32 34 35 34 32 32 32 31 31 27 23 32 38 32 28 28 25 24 25 24 23 24 25 29 34 36 36 30 22 25 19 8 14 22 27 39 47 52 56 49 43 37 31 31 24 14 12 13 17 19 17 19
45 45 46 46 44 40 38 36 32 28 29 29 33 41 47 47 45 44 42 40 39 35 30 28 28 28 26 23 22 19 17 17 17 18 23 25 23 25 30 30 30 32 33 32 32 29 25 32 42 40 34 31 29 28 27 27 29 29 28 32 32 26 29 27 11 7 11 8 13 23 33 37 30 31 40 33 28 30 28 27 21 15 15 19 25 23 17 17
44 45 46 46 42 38 38 36 32 29 29 32 39 47 49 49 49 49 46 45 43 40 36 33 32 31 29 30 31 27 23 22 20 18 21 23 19 19 22 24 25 28 29 28 29 31 29 29 38 45 38 32 32 32 29 28 30 33 33 31 25 16 17 21 11 4 8 8 7 16 31 37 34 39 46 40 39 40 33 26 23 22 22 22 21 17 16 15
41 42 45 44 40 37 35 34 32 30 31 36 44 47 49 51 51 49 47 46 43 40 39 39 37 34 35 37 38 35 32 31 29 27 27 25 23 23 23 22 23 23 25 26 24 26 28 22 27 42 41 33 32 33 31 28 26 28 32 32 31 26 19 18 17 12 10 9 8 12 16 23 36 50 51 46 42 37 30 25 22 21 22 19 14 12 12 13
37 38 41 40 37 35 32 30 30 32 35 42 46 48 50 51 49 49 47 46 44 42 41 41 40 37 38 40 40 38 37 36 34 34 32 29 29 30 27 26 27 26 27 29 24 22 25 21 22 36 41 36 33 29 25 23 21 21 25 28 31 33 29 22 20 21 17 8 6 7 8 16 36 48 50 48 42 33 26 21 18 16 16 14 13 15 22 27
33 36 38 36 34 33 31 30 32 35 40 44 46 48 49 48 48 49 47 45 44 42 40 40 40 40 41 40 39 38 37 37 37 36 35 36 36 35 32 31 31 29 31 33 27 22 22 21 22 28 34 38 38 33 30 30 29 27 24 24 26 30 30 20 14 23 28 18 12 11 9 16 34 46 51 51 45 36 29 25 25 27 26 26 28 34 42 46
33 35 34 32 31 29 28 30 34 37 41 44 45 46 45 45 46 46 45 44 42 40 39 39 40 41 41 40 41 40 38 38 40 38 38 40 39 37 36 34 32 31 32 33 31 31 32 30 31 34 38 44 44 42 41 40 41 41 36 32 30 29 30 23 15 21 28 25 24 23 15 16 33 46 52 53 50 49 47 46 47 46 42 43 48 51 50 50
33 34 32 32 31 26 24 28 32 36 40 42 41 41 41 41 43 43 42 42 40 38 37 38 38 39 39 39 39 38 38 38 40 41 41 41 41 41 39 37 36 34 33 34 34 36 36 32 32 36 39 42 44 45 46 44 43 46 46 46 44 41 43 42 36 32 29 24 24 20 11 14 30 44 51 54 56 57 57 56 55 53 52 55 57 54 47 46
31 32 31 31 31 28 29 32 35 38 40 40 40 41 41 41 41 42 42 41 39 38 38 38 37 37 37 37 36 37 38 36 37 39 39 39 41 43 41 38 37 35 34 36 35 33 32 28 25 24 22 24 27 29 34 38 40 44 46 47 48 50 50 48 44 37 28 28 31 20 11 23 38 46 51 53 56 57 57 57 57 59 63 63 56 49 46 49
29 30 30 30 30 30 33 36 37 39 39 39 41 42 43 43 43 44 43 42 41 41 40 40 38 37 38 37 38 40 39 38 38 38 39 41 42 43 42 38 36 36 35 35 34 35 36 34 29 21 13 12 16 18 23 30 32 33 38 41 42 47 47 43 41 33 21 27 37 28 23 37 47 47 49 53 56 61 64 67 68 65 63 58 51 50 52 54
29 30 30 30 30 32 36 36 37 39 39 40 42 42 43 45 45 44 43 43 41 41 41 41 39 38 39 40 40 40 40 40 40 41 42 43 42 41 40 38 36 35 33 31 32 35 39 41 40 37 32 30 34 37 39 38 33 29 31 33 34 37 39 39 37 34 28 30 37 38 39 46 49 48 53 58 62 65 68 69 68 63 59 55 53 53 55 54
29 31 30 28 27 28 33 35 37 40 41 40 42 42 43 44 43 42 42 42 41 40 40 40 39 38 39 40 40 39 40 40 41 42 43 43 42 42 40 40 40 39 38 37 36 36 38 40 41 43 46 46 47 49 48 47 46 43 40 39 37 35 36 37 37 39 40 33 31 38 45 47 48 48 52 57 58 58 57 58 60 62 60 55 53 54 56 57
31 32 30 28 28 28 30 32 34 37 40 41 42 43 43 43 43 41 39 39 38 37 37 38 39 39 39 39 39 39 38 38 38 40 39 39 41 42 41 41 41 41 41 42 41 39 37 38 40 43 45 46 48 49 50 51 53 51 48 47 46 44 43 45 47 51 50 42 40 47 51 51 53 51 52 56 57 55 56 58 61 63 61 57 57 59 60 60
33 34 32 31 33 34 33 33 33 34 36 38 41 42 42 43 45 43 41 40 40 38 38 39 40 39 39 38 38 39 39 37 37 37 38 38 36 36 37 37 35 33 33 33 33 30 27 28 31 35 37 39 40 43 48 52 51 50 49 47 46 47 49 53 56 58 56 54 55 56 56 59 61 58 56 57 56 56 58 60 61 63 63 63 63 63 62 61
34 36 35 34 36 36 35 35 35 36 36 36 40 42 41 41 42 41 39 39 40 39 37 39 40 40 40 39 38 38 38 38 38 35 33 32 30 28 28 29 29 28 25 23 23 22 23 24 25 30 34 34 34 36 39 40 40 41 41 40 42 46 50 55 57 57 57 57 58 58 59 59 56 54 53 54 55 57 59 60 61 61 61 62 62 62 61 60
36 36 36 36 37 36 36 37 36 37 39 38 40 42 41 41 42 41 40 41 41 38 35 33 31 30 31 32 33 33 32 33 34 34 33 34 35 34 34 34 36 36 35 35 35 35 36 37 36 37 34 34 38 37 35 35 36 36 38 42 45 48 50 52 53 51 52 54 54 53 50 40 34 38 45 50 52 53 53 54 55 55 57 58 59 60 60 58
35 36 36 37 39 38 38 39 38 39 41 40 41 41 40 41 42 42 42 42 41 41 41 40 39 37 36 35 36 36 37 38 41 42 43 45 46 46 47 47 47 47 48 50 49 47 45 41 38 35 31 34 40 40 39 36 30 30 38 43 41 40 41 44 45 44 45 47 45 40 33 25 23 27 32 38 41 41 40 43 45 47 51 53 54 56 57 56
Wind_Direction
259 259 261 262 263 263 263 263 262 261 261 261 260 258 255 253 252 252 251 252 252 252 251 252 253 256 258 261 263 265 266 266 265 266 264 265 270 271 268 267 267 268 270 271 271 271 272 274 274 273 272 272 271 273 273 274 277 275 274 273 273 278 287 286 279 278 284 288 285 285 287 288 291 294 293 291 291 293 292 291 292 293 297 301 299 291 285 279
261 262 263 264 264 265 266 266 267 267 267 267 267 266 265 264 263 260 259 259 259 258 258 257 257 257 258 259 260 262 264 265 266 268 266 266 270 272 271 269 270 271 271 272 275 275 277 277 277 276 275 275 275 275 275 276 278 277 276 274 275 284 288 281 278 282 289 289 288 289 289 289 294 297 293 291 293 293 291 291 294 295 298 300 295 289 287 284
261 263 264 265 265 266 267 268 269 270 270 271 271 271 271 271 271 270 268 267 266 265 263 262 262 261 261 260 260 262 263 264 266 269 267 267 268 269 270 271 272 274 272 272 274 276 279 279 278 278 277 278 278 278 278 279 280 279 275 274 280 288 283 279 283 285 286 288 289 290 289 290 295 295 291 293 295 292 293 297 299 298 298 294 289 287 288 286
261 262 262 263 264 265 266 267 268 268 269 270 272 272 273 274 274 274 274 274 273 272 271 269 267 266 265 263 263 263 264 267 269 269 268 268 268 268 269 271 272 273 274 273 272 274 278 279 279 280 279 278 279 279 277 279 280 277 273 276 283 284 280 283 287 284 282 285 288 291 292 292 295 292 290 294 293 296 310 310 305 301 296 289 285 284 284 283
261 261 262 262 263 264 265 266 266 267 267 268 269 270 271 273 273 274 275 275 276 277 277 276 274 273 271 269 267 266 268 274 273 269 268 268 268 269 270 271 271 272 272 271 271 273 276 280 282 283 281 280 279 278 277 277 276 275 274 277 281 282 282 283 285 282 281 282 285 291 293 292 293 290 292 293 289 299 329 315 309 307 298 287 280 277 277 280
261 262 262 262 262 263 263 264 265 266 267 267 268 268 269 270 271 272 272 274 274 276 277 278 278 277 277 275 273 271 270 272 270 267 269 266 265 268 271 271 271 272 272 272 272 273 276 280 281 283 283 282 281 280 281 279 276 276 276 277 280 283 282 283 284 280 280 281 285 291 290 289 292 291 291 288 284 299 321 310 309 308 296 284 277 274 274 278
261 261 261 261 262 262 263 263 264 266 267 268 269 269 270 270 270 271 271 272 272 274 275 275 276 277 277 276 275 273 270 269 269 269 268 265 263 266 270 270 270 273 275 275 274 275 276 276 279 282 282 281 281 281 281 281 280 278 278 280 283 282 281 284 284 280 280 281 285 288 286 288 295 294 287 282 283 301 316 308 306 303 293 283 278 275 274 277
261 261 261 262 262 262 262 263 264 266 267 268 269 270 270 271 271 271 272 273 273 273 273 274 273 273 274 273 273 270 269 274 274 271 269 268 267 267 269 270 270 271 273 273 273 273 273 274 278 280 279 280 279 277 278 280 279 278 279 282 282 280 280 283 282 281 282 282 285 286 285 288 296 293 283 279 286 305 313 305 299 295 288 282 279 277 275 276
265 264 264 263 263 263 263 263 264 265 266 267 269 270 270 271 271 272 273 274 275 275 275 275 274 273 272 271 271 267 267 274 273 270 270 269 269 269 269 269 269 270 271 271 271 271 272 275 277 277 276 276 275 275 276 277 276 277 280 280 278 279 280 281 280 281 282 284 286 286 286 288 293 290 281 280 287 297 304 300 295 291 284 280 280 279 279 279
267 268 267 267 267 266 266 265 265 266 267 267 269 270 271 271 272 273 273 275 276 277 278 278 277 276 273 272 270 265 265 271 269 269 269 268 269 270 269 269 269 269 270 270 271 272 273 273 272 272 273 273 274 275 275 275 276 277 278 277 277 278 279 279 279 280 282 284 286 286 286 287 288 283 279 283 292 293 296 295 293 292 286 282 281 281 282 280
267 268 269 269 269 269 269 268 268 268 268 269 270 271 272 272 273 273 274 275 277 278 279 280 280 279 277 274 267 266 270 269 266 267 268 268 268 269 269 268 268 268 269 269 270 270 270 270 269 270 272 273 274 275 275 276 277 277 277 277 277 278 278 278 279 282 283 285 286 286 286 285 281 277 278 287 294 291 290 289 291 291 288 285 283 282 281 278
265 267 268 269 270 270 270 270 270 270 270 270 270 271 272 272 272 272 273 275 276 276 278 280 280 280 280 273 266 269 274 269 267 267 268 269 268 267 267 267 267 268 267 268 268 268 269 269 269 269 269 271 273 275 276 277 277 277 278 279 277 277 277 277 280 282 284 286 288 289 285 282 278 277 282 289 293 290 288 287 289 289 287 284 282 282 279 277
265 265 267 268 269 270 271 271 271 271 271 271 270 271 271 271 272 272 273 274 275 274 275 278 278 279 278 271 267 272 272 271 271 271 273 273 268 265 264 265 266 266 266 266 266 267 268 268 269 268 267 270 273 274 275 275 275 276 278 278 278 278 278 280 282 284 286 288 290 290 284 283 283 281 284 290 292 291 288 288 288 287 286 284 283 282 278 276
265 266 266 267 268 269 271 272 272 273 273 273 273 273 273 273 273 273 274 274 274 274 275 276 276 277 275 271 271 272 271 271 273 277 280 275 270 268 267 267 266 265 266 267 267 267 267 268 267 267 267 269 273 274 273 272 273 276 277 275 276 276 278 283 287 290 292 292 294 291 283 284 288 285 287 292 293 291 289 289 288 287 287 286 285 283 279 276
266 267 268 269 270 271 272 273 274 274 275 275 275 275 275 275 276 276 276 275 275 275 275 275 276 276 276 274 273 273 273 275 277 280 278 275 273 272 270 268 267 266 266 267 268 268 268 268 266 266 267 269 272 272 270 270 272 275 273 273 274 275 280 287 290 293 294 293 292 288 283 286 289 287 289 292 291 291 290 289 288 288 288 287 286 284 280 276
269 270 271 271 272 273 274 275 276 278 278 278 278 278 278 277 277 277 277 277 276 275 276 275 275 275 275 276 276 276 279 282 281 277 274 274 274 271 269 268 268 268 267 267 267 267 268 268 267 266 266 268 270 270 268 269 271 271 270 272 275 279 285 291 290 288 289 289 289 287 285 288 289 289 290 291 291 292 291 290 289 289 288 286 285 283 280 277
272 272 273 274 275 275 276 278 279 281 282 282 282 283 282 281 280 279 278 278 277 277 276 275 275 274 273 277 279 280 283 283 280 277 275 274 271 270 270 269 268 266 265 265 265 267 268 267 267 266 266 269 269 267 262 261 267 272 274 276 280 285 289 291 289 287 287 288 290 290 288 288 290 291 290 290 291 292 292 291 289 288 287 285 284 283 282 280
272 273 274 274 275 276 276 277 278 280 281 282 283 283 283 282 281 279 279 278 277 277 276 276 276 275 275 279 281 282 282 280 280 279 277 275 273 272 271 269 267 264 264 266 266 266 267 268 268 265 265 266 264 260 255 261 274 280 283 284 286 288 286 286 288 289 290 289 289 289 288 290 292 293 293 292 292 291 290 289 287 286 285 285 285 285 284 282
272 273 273 274 275 275 276 276 277 278 279 281 283 283 283 282 280 279 278 277 276 277 277 277 275 274 278 282 282 282 281 279 278 277 276 275 273 272 271 269 267 265 265 266 267 267 268 268 264 261 264 265 265 266 269 279 287 288 287 286 285 285 283 284 287 291 294 291 287 287 288 290 292 294 294 292 291 289 287 286 285 285 285 285 286 286 285 283
272 273 273 274 275 276 277 277 278 279 279 280 282 284 284 284 284 282 280 278 277 277 276 277 277 275 277 280 281 281 280 277 275 274 273 271 269 269 269 268 266 265 264 266 267 268 269 267 263 263 268 271 275 280 284 287 288 286 284 282 282 281 282 285 288 294 297 290 286 288 289 290 291 292 293 291 290 287 284 284 284 286 287 288 288 287 284 283
271 272 273 274 275 276 277 278 279 280 280 281 282 283 284 285 286 286 283 280 278 278 277 277 279 277 277 281 282 282 279 274 272 270 268 268 268 267 266 265 265 265 266 268 268 270 269 265 265 270 276 280 284 285 284 283 282 281 281 280 280 279 282 288 291 295 297 288 287 292 292 290 290 291 290 289 288 285 285 286 286 288 289 290 289 287 285 285
271 272 273 274 275 276 278 279 279 280 281 282 281 281 282 284 286 288 288 285 280 278 279 279 278 278 280 282 282 280 276 273 271 269 268 268 266 265 266 265 265 267 268 267 267 269 266 264 269 278 283 285 284 281 279 280 280 279 277 277 277 280 287 291 293 296 297 290 290 296 294 290 291 290 289 288 286 286 287 286 287 289 290 290 289 287 286 284
270 271 273 274 276 277 278 279 279 280 280 281 281 281 283 285 287 289 290 289 285 280 279 280 280 280 282 282 279 277 274 272 272 269 266 264 262 263 264 264 265 267 266 265 266 266 264 267 276 283 283 282 279 278 278 280 279 277 276 274 276 283 288 288 293 298 297 292 293 298 295 291 291 289 287 287 288 288 289 290 291 292 291 291 290 287 285 284
270 271 272 274 275 276 278 278 279 279 280 281 283 284 286 288 291 292 293 293 290 285 282 282 281 282 282 279 274 269 268 268 267 265 261 258 258 259 260 263 265 265 265 266 268 267 267 273 279 280 278 277 277 277 276 277 279 279 277 274 279 287 288 288 294 297 294 291 293 299 298 293 294 294 292 293 293 293 295 297 297 296 295 295 292 290 287 284
269 270 270 272 273 275 277 279 281 282 282 284 286 288 291 292 295 298 299 298 295 293 291 287 284 284 282 274 268 263 262 263 264 264 261 257 257 257 259 261 263 265 268 269 270 270 271 274 277 276 275 275 275 276 274 275 279 278 276 278 285 291 291 290 295 296 293 293 295 304 305 297 297 295 295 298 298 298 302 303 303 305 306 303 301 302 298 289
266 267 268 269 271 275 277 280 284 285 285 287 289 292 293 295 299 301 303 302 298 296 297 293 283 280 279 269 261 257 258 262 264 263 261 259 257 256 257 258 261 265 267 269 270 270 272 276 276 275 275 275 272 272 275 274 272 273 277 286 291 290 290 291 294 292 288 290 294 293 281 290 297 297 296 300 301 303 307 309 311 314 316 324 330 322 314 305
265 266 266 267 270 273 276 280 285 286 286 288 290 292 293 296 299 303 309 308 300 299 302 292 258 257 270 270 260 253 253 262 267 261 260 259 256 255 256 258 261 263 265 266 265 268 274 278 278 277 277 273 267 271 281 278 268 272 282 290 287 286 289 290 292 287 284 290 292 286 261 270 290 295 298 302 304 307 310 315 322 326 326 328 330 326 319 322
266 267 267 268 268 270 273 278 282 284 286 287 288 290 292 295 297 302 311 311 293 300 300 260 247 253 267 274 269 261 256 262 265 262 266 266 261 257 256 259 261 262 264 263 262 268 275 277 278 277 273 271 274 281 289 282 271 275 284 285 281 284 284 284 286 283 288 295 293 279 242 239 281 289 296 302 303 313 316 318 349 127 324 322 323 323 320 325
268 270 271 270 269 270 272 275 278 280 282 284 286 288 289 291 294 297 299 272 274 292 284 268 268 266 270 269 263 263 264 265 264 265 269 269 264 260 257 259 262 263 265 264 266 272 277 278 277 273 270 275 282 286 286 280 275 278 282 281 279 279 278 279 281 281 287 289 279 241 219 218 284 288 292 297 297 317 317 283 146 233 318 319 317 314 313 318
271 271 273 273 273 273 271 273 278 279 281 283 284 285 287 289 290 286 265 252 270 286 284 280 274 268 269 263 257 260 262 262 263 264 267 266 263 262 261 264 266 268 270 268 271 276 279 278 275 272 275 280 282 281 279 277 275 276 276 276 276 275 277 277 272 274 283 277 266 257 257 250 278 287 297 319 293 293 137 152 225 300 313 313 302 308 312 316
273 271 271 272 276 278 275 275 281 282 283 283 283 283 284 284 280 257 227 262 279 283 281 280 275 267 264 258 255 257 257 258 260 262 264 264 262 263 264 267 270 272 273 271 272 277 277 274 274 276 280 281 281 279 278 278 276 274 272 270 273 277 278 274 262 254 221 266 269 268 267 244 239 266 292 314 280 218 250 285 291 297 305 275 279 306 312 315
278 276 274 273 275 278 279 280 281 281 281 280 280 278 278 278 258 238 240 266 288 293 277 273 265 259 253 251 250 253 257 258 257 259 264 266 266 266 267 270 274 274 274 273 274 275 272 271 273 277 278 278 279 276 273 274 273 271 265 258 258 281 289 267 230 204 205 253 266 262 239 230 246 261 270 274 278 279 284 293 294 292 288 264 283 303 306 303
277 279 280 279 278 278 280 281 280 278 278 278 275 273 272 266 250 249 251 259 262 262 274 279 276 270 268 263 255 255 263 264 263 266 271 271 271 270 268 268 269 266 267 272 274 275 276 274 271 271 273 273 272 268 268 273 274 271 263 251 235 221 281 258 251 270 250 258 264 253 235 245 260 270 276 278 285 290 291 294 296 293 289 291 295 296 291 277
274 277 278 280 280 280 280 280 278 275 276 273 268 265 258 247 252 259 262 262 262 265 271 275 278 279 278 274 269 269 271 271 271 270 270 269 268 269 268 268 267 264 266 270 271 271 274 276 272 269 270 271 270 268 271 277 279 276 271 259 242 232 224 221 237 244 262 273 269 233 218 248 267 275 282 286 289 292 291 291 294 295 294 297 297 285 273 270
273 275 276 277 278 279 278 275 272 269 266 264 262 255 245 244 253 261 265 267 268 269 272 275 279 280 279 277 277 278 276 272 269 267 265 264 263 265 267 267 266 265 264 261 264 266 264 270 275 275 272 274 276 274 273 271 269 270 264 247 242 247 245 242 245 248 258 287 267 228 233 258 268 274 277 281 284 284 287 290 294 297 293 291 294 291 289 285
273 273 274 274 275 276 275 271 267 262 259 257 254 248 246 250 256 260 265 271 273 273 276 279 278 276 278 280 280 279 272 264 264 263 261 261 261 261 262 263 263 263 262 260 264 268 264 268 276 281 281 278 278 277 272 264 261 260 250 244 253 259 251 244 248 252 252 268 259 249 257 266 271 278 278 279 283 283 290 295 292 288 280 284 294 292 282 273
272 272 272 272 273 272 270 268 264 256 253 250 246 248 252 256 259 261 265 270 271 271 272 273 271 271 273 276 275 270 266 266 263 256 254 258 260 258 258 259 259 259 261 262 263 262 263 270 271 274 280 280 277 279 273 261 254 248 246 256 263 259 245 239 246 257 240 247 255 248 259 268 270 276 277 277 281 284 291 292 279 266 276 291 293 281 255 248
269 269 270 270 271 269 267 265 261 254 250 245 245 250 255 257 260 263 264 266 267 267 265 263 264 266 265 267 269 268 267 267 262 254 256 259 257 255 257 256 257 258 257 259 259 256 261 270 268 266 273 279 276 276 271 260 251 243 244 253 253 247 241 231 220 238 238 245 253 236 250 262 262 264 271 276 280 285 287 281 272 272 280 285 281 262 233 229
266 266 266 267 267 266 264 261 258 252 246 242 245 250 254 256 258 260 261 262 262 261 260 260 261 262 263 266 269 270 269 267 264 262 263 260 258 262 262 257 257 258 254 252 255 257 260 264 265 263 266 274 274 270 268 265 258 250 247 248 248 251 254 237 228 234 235 243 257 237 237 253 257 262 270 277 282 287 285 278 276 276 275 271 258 241 236 244
265 264 264 265 264 262 261 257 251 246 241 242 247 251 255 257 259 260 261 261 260 258 259 261 262 262 264 267 269 270 270 269 269 267 263 259 260 263 262 259 261 262 261 260 261 263 259 251 256 261 261 266 267 264 267 270 268 261 252 249 251 252 255 256 247 243 245 255 262 251 241 246 254 263 270 275 282 285 280 277 272 262 259 252 246 261 275 284
265 263 264 265 263 261 258 249 243 242 241 244 250 253 256 259 262 264 263 262 261 260 260 262 264 265 267 269 269 270 270 270 271 269 264 262 262 262 262 263 264 265 268 271 269 264 259 253 257 263 261 261 261 262 269 273 273 272 263 253 254 254 255 261 260 249 250 252 253 259 265 252 256 265 271 273 277 278 273 270 267 265 269 271 277 286 287 289
263 264 266 266 263 261 255 248 246 247 244 247 253 256 257 260 263 265 266 265 263 262 262 263 263 264 265 266 268 269 271 271 270 268 267 267 265 265 267 268 269 269 271 274 273 269 271 270 268 268 268 268 269 272 274 275 275 273 267 259 255 253 249 246 247 252 251 252 256 259 261 256 258 265 271 272 273 275 275 276 277 278 278 280 290 299 296 293
263 264 265 264 262 257 249 246 248 249 248 252 258 259 258 259 261 263 265 264 262 261 261 261 261 262 264 266 269 270 271 270 270 269 269 271 271 271 273 275 275 276 275 274 275 275 274 271 267 269 273 274 276 279 277 275 270 264 262 261 257 256 254 250 248 253 256 255 256 258 256 254 259 266 272 275 277 278 279 280 281 282 283 288 297 303 302 301
266 266 264 261 259 253 246 246 247 247 249 254 257 257 258 258 258 260 262 261 261 262 262 262 262 263 265 266 267 268 267 267 268 269 270 271 272 274 277 279 278 278 276 274 275 276 272 267 264 268 276 277 276 276 274 270 263 257 258 261 260 260 259 254 251 253 256 254 253 254 254 255 262 269 272 276 280 281 282 282 283 285 289 295 300 302 303 304
268 267 264 259 253 246 244 247 250 250 251 253 255 256 258 258 258 259 261 261 262 263 263 264 263 264 267 267 265 265 264 263 265 269 271 271 275 278 279 279 279 277 277 276 277 273 267 262 257 252 254 263 264 263 265 269 270 266 264 264 265 264 259 253 250 248 250 254 250 247 256 262 265 269 271 275 280 282 285 286 287 290 295 299 301 300 301 302
267 265 264 261 254 247 246 248 248 248 249 251 254 255 255 257 258 259 261 262 263 263 264 264 264 266 266 265 264 264 264 265 266 268 270 272 275 277 276 277 277 276 274 273 271 267 263 261 258 252 250 253 259 264 268 272 275 275 272 272 272 269 263 257 250 245 253 262 255 252 262 266 266 268 272 276 279 282 285 288 291 296 299 299 298 296 296 296
267 265 264 261 255 251 252 251 246 245 246 247 250 252 254 256 258 260 261 262 263 264 266 266 265 264 264 265 267 268 268 269 269 270 271 272 273 272 272 273 273 272 272 270 268 266 263 262 263 260 257 257 262 267 272 274 272 271 271 271 269 265 261 258 254 254 261 265 261 263 267 268 268 271 273 276 280 284 288 292 295 298 297 294 293 291 291 291
268 267 265 261 256 254 255 253 248 245 244 245 247 249 251 253 256 258 259 261 263 263 265 265 264 263 264 266 267 269 270 269 269 270 270 270 271 271 272 272 272 271 270 268 266 264 263 264 266 266 263 264 267 271 274 274 272 270 268 268 268 267 267 266 266 267 266 262 264 270 270 268 270 272 273 277 282 287 289 290 290 289 288 288 287 287 287 286
268 266 264 259 258 259 258 256 254 251 246 244 246 250 252 254 256 257 258 261 262 263 263 266 268 269 268 268 267 267 268 267 266 266 266 265 264 265 267 267 266 266 267 267 260 256 263 268 264 265 270 273 273 274 274 271 270 270 270 272 276 277 277 276 274 274 271 267 268 271 269 268 271 274 275 276 277 278 279 279 279 278 279 281 283 284 284 285
267 265 263 259 258 261 259 256 255 254 250 244 242 246 250 254 258 261 261 261 261 263 267 268 267 265 265 266 265 261 258 257 257 256 257 258 256 258 262 262 261 259 259 263 258 257 274 280 272 277 286 286 283 283 282 278 275 275 276 281 285 283 281 279 276 274 272 271 273 273 271 271 272 271 271 270 269 269 269 271 272 274 276 278 280 282 283 284
267 265 264 261 259 260 258 255 253 251 252 250 247 246 247 249 252 255 257 258 259 260 261 260 258 255 254 255 253 252 251 253 257 259 262 266 266 268 271 271 271 269 267 269 272 274 280 285 285 288 290 287 286 287 288 288 287 284 282 284 285 283 281 279 276 276 274 273 276 277 274 274 274 268 266 267 266 265 265 267 269 271 274 277 279 281 282 282
266 263 262 261 260 260 257 255 252 250 251 254 252 249 248 249 251 252 254 257 259 259 257 255 256 257 258 257 257 259 262 264 269 272 272 274 275 275 275 276 276 277 276 277 279 279 281 283 285 287 285 282 284 285 286 289 290 283 279 281 282 283 284 282 280 279 276 274 276 276 273 274 276 271 268 266 263 262 263 266 268 270 272 273 274 275 276 277
Height
3193 3193 3193 3193 3193 3193 3192 3192 3192 3192 3192 3191 3191 3191 3190 3190 3190 3190 3189 3189 3189 3189 3189 3188 3188 3188 3187 3187 3186 3186 3186 3185 3185 3185 3185 3184 3183 3183 3183 3183 3182 3182 3182 3181 3181 3180 3180 3180 3179 3179 3178 3178 3178 3177 3176 3176 3175 3175 3174 3173 3172 3171 3171 3170 3169 3168 3167 3167 3166 3166 3165 3164 3163 3163 3161 3160 3159 3159 3158 3157 3157 3156 3156 3156 3155 3154 3153 3153
3192 3192 3192 3192 3192 3191 3191 3191 3191 3191 3191 3190 3190 3190 3189 3189 3189 3188 3188 3188 3188 3188 3187 3187 3187 3186 3186 3186 3185 3185 3184 3184 3184 3184 3184 3183 3183 3182 3182 3182 3181 3181 3181 3180 3180 3179 3179 3179 3179 3178 3178 3177 3177 3176 3176 3175 3175 3174 3173 3171 3171 3171 3170 3169 3168 3168 3166 3165 3164 3164 3163 3162 3162 3161 3159 3157 3157 3157 3155 3155 3156 3155 3155 3154 3153 3152 3151 3151
3191 3191 3191 3190 3190 3190 3190 3190 3190 3190 3189 3189 3189 3188 3188 3188 3187 3187 3187 3186 3186 3186 3186 3186 3186 3185 3185 3184 3184 3183 3183 3183 3183 3183 3183 3182 3182 3181 3181 3180 3180 3180 3180 3179 3179 3178 3178 3177 3177 3177 3177 3176 3176 3175 3175 3174 3174 3173 3171 3170 3170 3170 3169 3169 3168 3167 3166 3164 3163 3163 3162 3161 3161 3160 3157 3156 3154 3154 3153 3153 3154 3153 3153 3152 3151 3150 3150 3149
3189 3189 3189 3189 3189 3189 3189 3189 3188 3188 3188 3188 3188 3187 3187 3186 3186 3186 3185 3185 3185 3185 3184 3184 3184 3184 3183 3183 3183 3182 3181 3182 3182 3181 3181 3181 3180 3180 3179 3179 3179 3179 3178 3178 3178 3177 3177 3176 3176 3175 3175 3175 3174 3174 3173 3173 3172 3170 3169 3168 3169 3168 3167 3168 3167 3165 3165 3163 3161 3161 3160 3159 3160 3158 3156 3155 3152 3151 3152 3152 3152 3151 3151 3150 3149 3148 3147 3147
3188 3188 3187 3187 3187 3187 3187 3187 3187 3187 3186 3186 3186 3185 3185 3185 3184 3184 3184 3183 3183 3183 3183 3183 3183 3182 3182 3182 3181 3180 3180 3181 3180 3180 3180 3179 3179 3178 3178 3178 3178 3177 3177 3177 3176 3176 3175 3174 3174 3173 3173 3173 3172 3172 3172 3172 3170 3167 3167 3167 3167 3166 3165 3166 3166 3164 3163 3162 3160 3160 3159 3158 3158 3156 3154 3153 3151 3150 3151 3150 3149 3149 3148 3147 3146 3145 3145 3145
3186 3186 3186 3185 3185 3185 3185 3185 3185 3185 3184 3184 3184 3184 3183 3183 3183 3182 3182 3182 3182 3181 3181 3181 3181 3180 3180 3180 3180 3179 3179 3179 3179 3178 3178 3178 3177 3177 3177 3177 3176 3176 3176 3175 3175 3174 3174 3173 3172 3172 3171 3170 3170 3169 3169 3169 3168 3165 3164 3165 3166 3165 3162 3163 3164 3162 3161 3160 3159 3159 3157 3156 3156 3154 3152 3150 3149 3150 3150 3149 3148 3147 3146 3144 3143 3143 3143 3143
3184 3184 3183 3183 3183 3183 3183 3183 3183 3182 3182 3182 3182 3181 3181 3181 3181 3180 3180 3180 3180 3180 3179 3179 3179 3179 3178 3178 3178 3177 3176 3178 3178 3177 3177 3177 3176 3176 3176 3175 3175 3174 3174 3173 3173 3172 3172 3171 3170 3170 3169 3168 3168 3167 3167 3166 3165 3163 3161 3162 3163 3162 3160 3161 3161 3159 3159 3158 3158 3157 3155 3155 3154 3152 3149 3146 3148 3150 3149 3148 3146 3145 3143 3142 3141 3141 3141 3141
3182 3182 3181 3181 3181 3181 3181 3181 3181 3180 3180 3180 3179 3179 3179 3178 3178 3178 3178 3177 3177 3177 3177 3177 3177 3177 3176 3176 3176 3174 3174 3176 3177 3175 3175 3175 3175 3175 3174 3174 3173 3173 3172 3171 3171 3170 3169 3169 3169 3168 3167 3166 3166 3165 3164 3163 3162 3160 3160 3160 3159 3158 3158 3158 3157 3156 3156 3156 3155 3154 3153 3153 3153 3150 3144 3143 3147 3149 3148 3146 3144 3143 3141 3140 3140 3139 3139 3139
3180 3180 3180 3179 3179 3179 3179 3179 3178 3178 3178 3178 3177 3177 3177 3176 3176 3176 3175 3175 3175 3175 3175 3175 3174 3175 3174 3174 3173 3171 3172 3175 3175 3173 3173 3173 3173 3173 3172 3172 3171 3171 3170 3170 3169 3168 3167 3167 3167 3166 3164 3164 3163 3162 3162 3161 3159 3159 3158 3157 3156 3155 3156 3156 3155 3154 3153 3153 3152 3150 3151 3151 3151 3147 3140 3141 3146 3147 3146 3144 3143 3141 3140 3139 3138 3138 3137 3137
3178 3177 3177 3177 3177 3177 3177 3177 3176 3176 3176 3175 3175 3175 3174 3174 3173 3173 3173 3173 3173 3172 3172 3172 3172 3172 3171 3172 3170 3167 3171 3174 3172 3171 3171 3171 3171 3171 3170 3170 3169 3169 3168 3167 3167 3166 3165 3165 3164 3163 3162 3162 3161 3160 3160 3158 3157 3157 3156 3154 3154 3153 3153 3153 3152 3152 3150 3150 3150 3147 3147 3148 3148 3143 3136 3139 3145 3144 3143 3142 3141 3140 3139 3138 3137 3136 3135 3135
3175 3175 3175 3175 3175 3175 3175 3174 3174 3174 3174 3173 3173 3172 3172 3172 3171 3171 3170 3170 3170 3170 3169 3169 3169 3169 3169 3169 3167 3165 3170 3171 3169 3169 3168 3169 3169 3169 3168 3167 3167 3166 3165 3165 3164 3164 3163 3162 3161 3161 3160 3159 3159 3158 3157 3156 3155 3154 3153 3151 3151 3150 3150 3149 3149 3149 3148 3147 3146 3144 3142 3143 3144 3139 3134 3139 3142 3141 3140 3139 3139 3138 3137 3136 3135 3134 3133 3132
3173 3173 3173 3172 3172 3172 3172 3172 3172 3172 3171 3171 3171 3170 3170 3169 3168 3168 3168 3168 3167 3167 3166 3166 3166 3165 3165 3164 3163 3165 3168 3167 3166 3167 3166 3167 3167 3166 3165 3164 3164 3163 3162 3162 3161 3161 3160 3159 3158 3159 3159 3157 3157 3156 3154 3154 3152 3151 3150 3147 3148 3147 3146 3146 3147 3146 3145 3144 3143 3141 3136 3136 3139 3135 3134 3138 3139 3137 3136 3135 3136 3135 3135 3134 3133 3131 3130 3130
3170 3170 3170 3170 3170 3170 3169 3169 3169 3169 3169 3169 3168 3168 3167 3166 3166 3166 3166 3165 3165 3164 3164 3164 3163 3163 3161 3160 3161 3163 3164 3163 3163 3164 3164 3165 3164 3163 3162 3161 3161 3160 3159 3158 3158 3158 3157 3156 3155 3155 3156 3155 3156 3155 3152 3151 3149 3149 3148 3144 3144 3142 3141 3143 3144 3144 3143 3141 3140 3139 3130 3127 3133 3133 3133 3136 3135 3133 3131 3131 3132 3132 3132 3131 3130 3129 3127 3127
3167 3167 3167 3167 3167 3167 3167 3166 3166 3166 3166 3165 3165 3165 3164 3164 3163 3163 3163 3162 3162 3161 3161 3161 3160 3159 3157 3157 3159 3159 3160 3161 3161 3162 3162 3161 3160 3160 3159 3158 3158 3157 3156 3155 3155 3154 3153 3153 3152 3152 3154 3154 3154 3152 3149 3147 3147 3147 3145 3141 3141 3138 3137 3140 3142 3140 3140 3137 3136 3135 3124 3120 3127 3130 3131 3133 3132 3129 3126 3127 3127 3127 3127 3126 3126 3125 3123 3123
3164 3164 3164 3164 3164 3164 3164 3164 3163 3163 3163 3162 3162 3161 3161 3161 3160 3160 3159 3159 3159 3158 3158 3157 3156 3156 3153 3154 3156 3155 3156 3158 3158 3159 3158 3157 3157 3157 3156 3155 3154 3153 3153 3152 3151 3151 3150 3149 3149 3149 3151 3152 3152 3149 3145 3144 3145 3145 3140 3137 3138 3135 3133 3138 3141 3139 3136 3133 3131 3129 3119 3116 3122 3125 3128 3129 3126 3124 3122 3121 3122 3121 3122 3121 3120 3120 3119 3118
3161 3161 3161 3161 3161 3161 3161 3161 3160 3160 3160 3159 3159 3158 3158 3157 3157 3156 3155 3155 3155 3154 3154 3153 3153 3152 3149 3150 3153 3152 3154 3155 3155 3155 3154 3154 3154 3153 3152 3151 3151 3150 3149 3149 3148 3147 3146 3145 3145 3147 3148 3149 3149 3144 3141 3141 3141 3141 3137 3133 3135 3134 3131 3133 3137 3137 3134 3128 3125 3123 3116 3112 3116 3121 3124 3124 3122 3119 3116 3115 3116 3115 3115 3115 3114 3114 3114 3113
3158 3158 3158 3158 3158 3158 3158 3158 3157 3157 3157 3156 3156 3155 3155 3154 3154 3153 3152 3152 3151 3150 3150 3148 3149 3147 3144 3146 3148 3149 3151 3151 3151 3151 3151 3151 3150 3149 3149 3147 3147 3147 3146 3145 3145 3144 3143 3142 3142 3143 3145 3146 3145 3141 3138 3138 3137 3137 3136 3132 3132 3133 3131 3129 3130 3133 3132 3125 3120 3117 3112 3107 3111 3116 3118 3120 3118 3114 3111 3110 3109 3109 3109 3108 3109 3108 3108 3108
3155 3155 3155 3155 3155 3155 3155 3155 3155 3154 3154 3153 3153 3153 3152 3151 3150 3149 3149 3148 3147 3147 3145 3145 3146 3142 3140 3144 3146 3146 3147 3147 3147 3147 3148 3148 3147 3146 3145 3144 3143 3143 3142 3142 3141 3140 3139 3138 3138 3140 3142 3142 3140 3136 3134 3135 3135 3135 3134 3131 3129 3129 3128 3126 3126 3128 3128 3121 3116 3113 3106 3102 3105 3110 3112 3114 3115 3109 3105 3105 3103 3103 3103 3103 3103 3103 3103 3102
3152 3152 3152 3153 3152 3152 3152 3152 3152 3151 3151 3151 3150 3149 3149 3147 3147 3146 3145 3145 3144 3144 3142 3141 3142 3139 3137 3141 3143 3143 3144 3144 3143 3144 3144 3144 3143 3142 3141 3140 3139 3138 3138 3138 3138 3137 3137 3135 3134 3135 3136 3136 3135 3134 3132 3133 3134 3132 3131 3129 3127 3125 3123 3123 3122 3123 3124 3116 3110 3110 3103 3098 3101 3103 3105 3107 3109 3106 3101 3099 3098 3097 3098 3098 3098 3097 3097 3096
3149 3149 3149 3149 3149 3149 3149 3149 3149 3148 3148 3148 3147 3146 3145 3144 3143 3142 3141 3141 3141 3140 3139 3137 3137 3136 3136 3138 3139 3139 3140 3140 3139 3140 3140 3139 3139 3138 3137 3136 3134 3133 3133 3135 3134 3133 3134 3130 3127 3129 3131 3132 3133 3133 3131 3130 3131 3128 3127 3125 3123 3121 3117 3118 3120 3120 3122 3110 3101 3106 3100 3093 3096 3097 3100 3102 3102 3101 3098 3096 3093 3093 3094 3093 3093 3092 3091 3090
3146 3146 3146 3146 3146 3146 3146 3146 3146 3145 3145 3145 3145 3143 3142 3141 3139 3137 3136 3135 3137 3136 3135 3135 3133 3131 3133 3135 3135 3136 3135 3135 3136 3136 3135 3135 3135 3133 3132 3131 3129 3128 3130 3132 3131 3130 3129 3122 3121 3126 3129 3130 3131 3131 3128 3126 3126 3125 3124 3121 3118 3117 3112 3113 3117 3116 3118 3106 3094 3100 3095 3086 3090 3091 3093 3097 3095 3094 3095 3093 3090 3089 3089 3088 3088 3087 3085 3085
3143 3143 3143 3143 3143 3143 3143 3143 3143 3142 3142 3141 3141 3140 3139 3138 3136 3134 3130 3128 3130 3133 3131 3130 3129 3125 3129 3133 3132 3131 3129 3129 3130 3131 3132 3132 3130 3129 3127 3126 3124 3124 3127 3128 3127 3126 3121 3114 3119 3126 3127 3127 3126 3126 3125 3123 3122 3121 3120 3118 3113 3114 3110 3106 3111 3113 3114 3104 3092 3095 3087 3076 3083 3085 3086 3090 3088 3088 3090 3089 3088 3086 3084 3084 3083 3082 3081 3080
3140 3140 3140 3140 3140 3140 3140 3139 3139 3139 3138 3138 3138 3137 3136 3135 3133 3131 3127 3121 3121 3126 3127 3126 3124 3121 3124 3127 3127 3127 3123 3122 3125 3126 3128 3127 3125 3125 3123 3121 3121 3120 3121 3123 3123 3120 3113 3112 3120 3125 3124 3123 3121 3122 3122 3120 3118 3116 3116 3114 3108 3111 3111 3101 3104 3109 3108 3102 3093 3092 3079 3065 3073 3077 3078 3084 3082 3082 3085 3084 3084 3083 3080 3079 3077 3077 3077 3075
3136 3137 3137 3137 3137 3137 3137 3136 3136 3136 3135 3135 3134 3134 3133 3132 3130 3128 3124 3118 3112 3116 3122 3121 3118 3117 3119 3121 3121 3121 3117 3117 3119 3119 3122 3122 3120 3121 3118 3117 3117 3115 3116 3118 3118 3113 3108 3113 3119 3120 3119 3118 3117 3117 3119 3117 3113 3109 3109 3110 3106 3108 3109 3101 3101 3103 3101 3099 3095 3092 3074 3052 3059 3068 3068 3075 3076 3074 3077 3077 3078 3078 3076 3074 3072 3071 3072 3070
3133 3134 3134 3134 3134 3133 3134 3133 3132 3133 3132 3132 3132 3131 3130 3128 3128 3125 3121 3115 3106 3107 3114 3115 3112 3112 3113 3114 3114 3114 3112 3112 3114 3114 3117 3117 3117 3117 3115 3115 3113 3111 3112 3114 3114 3107 3105 3113 3116 3114 3114 3114 3113 3111 3115 3115 3109 3102 3102 3107 3106 3104 3105 3102 3103 3100 3095 3094 3093 3096 3081 3049 3046 3060 3060 3063 3067 3066 3069 3070 3070 3072 3070 3070 3068 3067 3067 3066
3130 3131 3131 3131 3130 3131 3131 3130 3130 3130 3129 3130 3129 3128 3128 3126 3125 3123 3120 3113 3103 3102 3107 3108 3107 3108 3108 3108 3109 3109 3108 3109 3110 3111 3112 3113 3114 3113 3111 3110 3109 3109 3110 3111 3109 3101 3101 3109 3111 3109 3109 3109 3109 3107 3110 3112 3105 3097 3098 3104 3104 3102 3102 3100 3101 3100 3093 3091 3090 3095 3093 3063 3040 3046 3054 3056 3058 3060 3062 3063 3063 3065 3066 3066 3067 3066 3064 3064
3127 3128 3128 3128 3128 3128 3128 3128 3128 3126 3126 3127 3126 3126 3125 3124 3124 3122 3120 3113 3102 3099 3103 3103 3103 3104 3105 3106 3106 3107 3107 3106 3108 3108 3108 3109 3110 3110 3108 3106 3106 3106 3106 3108 3104 3097 3099 3105 3105 3105 3105 3103 3103 3104 3106 3108 3103 3095 3095 3100 3100 3099 3099 3097 3098 3098 3092 3090 3087 3087 3093 3082 3049 3035 3045 3051 3052 3055 3056 3057 3058 3059 3062 3063 3064 3064 3063 3063
3123 3124 3124 3124 3124 3124 3125 3126 3125 3124 3123 3123 3124 3124 3123 3122 3123 3122 3123 3117 3101 3096 3100 3101 3101 3103 3103 3105 3104 3105 3105 3105 3106 3106 3106 3107 3106 3106 3104 3103 3104 3103 3103 3104 3098 3095 3099 3101 3101 3101 3100 3098 3098 3100 3102 3104 3102 3096 3095 3096 3095 3096 3096 3095 3094 3094 3092 3088 3083 3080 3086 3089 3061 3035 3042 3047 3047 3051 3051 3052 3054 3055 3058 3059 3061 3062 3061 3062
3120 3120 3120 3120 3120 3121 3123 3123 3123 3121 3120 3120 3121 3121 3120 3122 3121 3121 3125 3117 3098 3094 3099 3099 3100 3101 3101 3103 3103 3103 3103 3103 3103 3103 3104 3104 3103 3102 3101 3101 3102 3100 3099 3099 3092 3092 3097 3097 3096 3096 3095 3095 3095 3097 3097 3099 3098 3095 3096 3093 3092 3093 3091 3093 3092 3090 3094 3087 3077 3078 3083 3087 3064 3035 3040 3046 3044 3048 3048 3049 3052 3051 3054 3056 3057 3059 3058 3059
3116 3116 3117 3116 3116 3118 3119 3119 3120 3118 3117 3118 3118 3118 3119 3119 3119 3120 3119 3106 3094 3095 3097 3096 3097 3099 3098 3099 3099 3099 3100 3100 3100 3100 3101 3100 3099 3099 3099 3099 3100 3097 3096 3094 3089 3090 3093 3092 3090 3090 3091 3092 3093 3094 3093 3093 3094 3094 3095 3092 3091 3091 3087 3090 3088 3087 3093 3082 3071 3075 3078 3085 3067 3035 3036 3044 3042 3045 3046 3047 3050 3049 3051 3052 3053 3055 3054 3055
3113 3113 3113 3112 3112 3114 3114 3116 3117 3116 3115 3116 3115 3116 3116 3115 3117 3116 3106 3095 3094 3096 3094 3094 3095 3095 3095 3096 3096 3096 3097 3097 3097 3098 3097 3097 3096 3096 3096 3097 3097 3096 3093 3090 3088 3088 3089 3087 3085 3085 3087 3089 3089 3090 3089 3089 3091 3091 3092 3091 3090 3089 3086 3086 3084 3086 3089 3076 3067 3070 3073 3080 3062 3033 3035 3042 3041 3044 3044 3045 3047 3046 3048 3049 3050 3051 3050 3051
3109 3109 3109 3109 3109 3110 3111 3112 3114 3114 3113 3113 3113 3113 3113 3113 3110 3102 3093 3094 3097 3093 3092 3093 3092 3093 3094 3094 3094 3094 3094 3094 3095 3095 3095 3094 3093 3093 3094 3094 3095 3094 3090 3087 3086 3084 3082 3082 3083 3082 3083 3085 3086 3086 3085 3085 3086 3087 3087 3089 3090 3089 3086 3084 3082 3084 3082 3069 3064 3068 3071 3068 3046 3029 3036 3041 3041 3043 3042 3043 3044 3044 3045 3046 3047 3047 3046 3047
3106 3106 3105 3105 3105 3106 3107 3108 3109 3110 3110 3111 3111 3109 3110 3110 3099 3088 3089 3095 3096 3091 3091 3093 3091 3092 3093 3092 3093 3093 3092 3092 3093 3093 3092 3091 3090 3090 3090 3091 3092 3091 3087 3085 3084 3080 3076 3075 3078 3079 3079 3081 3082 3082 3082 3081 3081 3082 3082 3084 3087 3087 3085 3082 3081 3080 3073 3064 3062 3067 3069 3056 3034 3029 3036 3037 3039 3040 3039 3041 3041 3042 3043 3042 3043 3043 3042 3043
3102 3102 3102 3101 3102 3102 3104 3105 3105 3106 3107 3107 3107 3107 3107 3100 3088 3083 3088 3091 3091 3091 3091 3090 3090 3090 3090 3089 3090 3090 3090 3090 3090 3090 3090 3089 3088 3086 3086 3087 3088 3087 3086 3084 3081 3078 3076 3069 3069 3075 3076 3076 3077 3078 3079 3078 3077 3076 3077 3079 3079 3078 3077 3076 3075 3071 3064 3060 3061 3064 3061 3045 3031 3031 3033 3034 3037 3037 3037 3038 3038 3039 3039 3038 3039 3039 3039 3041
3097 3097 3097 3097 3097 3098 3100 3101 3101 3102 3103 3102 3102 3103 3098 3088 3082 3084 3086 3085 3087 3089 3088 3088 3088 3086 3084 3084 3084 3085 3087 3086 3085 3087 3086 3085 3084 3083 3082 3083 3084 3084 3084 3082 3078 3076 3074 3067 3065 3070 3072 3072 3073 3074 3076 3076 3074 3072 3072 3073 3070 3068 3069 3069 3066 3062 3061 3060 3058 3056 3047 3036 3031 3030 3031 3034 3034 3034 3036 3036 3035 3036 3036 3036 3036 3036 3038 3039
3091 3091 3091 3092 3093 3095 3096 3095 3096 3098 3098 3097 3097 3093 3086 3079 3081 3083 3082 3083 3084 3085 3085 3086 3085 3083 3081 3080 3080 3081 3082 3081 3081 3082 3082 3081 3080 3079 3079 3079 3080 3080 3080 3079 3076 3075 3071 3065 3065 3067 3066 3067 3069 3069 3072 3072 3070 3068 3067 3064 3062 3064 3065 3063 3060 3058 3061 3058 3051 3047 3038 3032 3033 3027 3026 3031 3030 3031 3035 3033 3033 3033 3032 3033 3034 3034 3035 3035
3085 3085 3085 3086 3088 3090 3090 3090 3091 3092 3092 3092 3089 3082 3076 3075 3078 3079 3079 3080 3080 3081 3082 3082 3081 3080 3078 3077 3077 3077 3078 3078 3078 3078 3078 3078 3076 3075 3074 3075 3076 3076 3076 3075 3073 3073 3069 3064 3064 3065 3062 3063 3065 3064 3066 3066 3065 3063 3062 3060 3059 3061 3060 3060 3059 3057 3058 3051 3043 3041 3034 3031 3034 3026 3020 3025 3027 3028 3031 3031 3031 3031 3030 3032 3031 3031 3031 3029
3080 3080 3080 3081 3084 3084 3084 3085 3086 3087 3087 3086 3080 3074 3071 3072 3072 3074 3076 3077 3077 3078 3078 3077 3076 3075 3075 3074 3073 3074 3075 3074 3075 3075 3074 3074 3072 3071 3071 3071 3071 3071 3072 3072 3069 3069 3068 3063 3061 3061 3059 3059 3061 3061 3059 3059 3059 3058 3057 3058 3058 3057 3055 3056 3056 3054 3052 3046 3038 3036 3032 3029 3029 3022 3017 3022 3024 3025 3027 3028 3028 3028 3029 3030 3029 3029 3028 3026
3074 3074 3074 3076 3078 3078 3079 3079 3080 3081 3081 3077 3072 3068 3066 3066 3067 3070 3072 3073 3074 3073 3071 3071 3071 3070 3069 3069 3068 3069 3070 3069 3070 3071 3070 3069 3067 3066 3067 3068 3068 3067 3068 3067 3064 3064 3066 3062 3058 3057 3057 3055 3056 3056 3054 3054 3056 3055 3055 3055 3054 3053 3052 3051 3050 3047 3045 3039 3033 3032 3028 3024 3023 3020 3018 3020 3021 3022 3023 3023 3025 3026 3026 3027 3027 3027 3027 3026
3069 3068 3067 3070 3072 3073 3074 3074 3074 3075 3072 3068 3065 3063 3061 3061 3063 3065 3067 3068 3069 3069 3067 3066 3067 3065 3064 3063 3063 3064 3064 3064 3065 3065 3064 3064 3063 3062 3064 3064 3064 3064 3064 3063 3061 3060 3062 3060 3054 3054 3055 3052 3050 3051 3051 3051 3053 3052 3052 3052 3051 3050 3049 3046 3044 3042 3040 3035 3030 3028 3022 3019 3021 3020 3018 3018 3018 3019 3020 3020 3021 3023 3023 3023 3024 3025 3025 3025
3063 3062 3062 3065 3066 3067 3068 3067 3067 3066 3063 3061 3060 3058 3058 3059 3059 3059 3061 3062 3063 3063 3063 3062 3062 3061 3059 3059 3059 3059 3059 3058 3059 3059 3058 3058 3058 3058 3059 3061 3061 3062 3061 3059 3058 3057 3057 3055 3051 3050 3050 3047 3045 3048 3049 3049 3050 3049 3048 3047 3047 3047 3046 3044 3039 3037 3037 3032 3028 3026 3018 3015 3022 3021 3016 3016 3016 3015 3016 3017 3018 3019 3020 3021 3022 3023 3023 3022
3057 3057 3058 3060 3060 3062 3063 3061 3059 3059 3056 3054 3054 3054 3055 3056 3055 3054 3055 3056 3057 3057 3058 3057 3056 3056 3055 3054 3054 3055 3055 3053 3052 3053 3051 3051 3052 3053 3055 3057 3058 3059 3057 3056 3055 3054 3053 3050 3047 3045 3044 3042 3042 3045 3046 3045 3045 3045 3042 3042 3043 3042 3041 3039 3033 3031 3031 3027 3025 3024 3014 3010 3018 3020 3015 3014 3013 3012 3011 3012 3012 3014 3016 3016 3017 3017 3017 3016
3052 3052 3054 3054 3055 3057 3057 3055 3054 3053 3049 3049 3050 3051 3051 3051 3051 3051 3051 3051 3051 3052 3052 3051 3051 3050 3050 3050 3051 3050 3050 3048 3046 3046 3046 3045 3046 3048 3050 3052 3053 3054 3053 3051 3050 3050 3048 3045 3041 3038 3036 3035 3036 3038 3038 3037 3038 3035 3033 3035 3035 3033 3032 3030 3026 3026 3025 3021 3022 3019 3008 3005 3011 3014 3013 3011 3009 3008 3007 3007 3007 3007 3008 3010 3010 3010 3010 3009
3047 3048 3049 3050 3050 3052 3051 3048 3048 3046 3045 3046 3047 3046 3046 3046 3046 3046 3046 3046 3046 3047 3046 3045 3046 3046 3045 3046 3046 3045 3046 3043 3040 3040 3042 3041 3040 3042 3046 3048 3048 3048 3048 3046 3046 3046 3043 3040 3038 3036 3033 3030 3029 3030 3029 3028 3028 3025 3023 3026 3025 3024 3025 3023 3022 3023 3016 3013 3017 3011 2999 3000 3006 3008 3009 3008 3005 3002 3001 3002 3003 3002 3001 3002 3003 3002 3003 3002
3043 3043 3044 3045 3045 3045 3043 3043 3044 3043 3042 3043 3042 3041 3042 3041 3040 3042 3042 3041 3042 3042 3041 3040 3041 3041 3041 3041 3040 3039 3040 3039 3036 3036 3037 3036 3035 3037 3039 3041 3041 3041 3041 3041 3042 3040 3036 3034 3034 3033 3030 3027 3023 3022 3022 3023 3022 3019 3018 3020 3020 3019 3020 3018 3018 3016 3008 3006 3008 3001 2992 2995 3001 3004 3004 3004 3001 2997 2995 2994 2996 2998 2997 2996 2996 2995 2995 2995
3038 3038 3039 3039 3039 3039 3038 3039 3040 3038 3038 3039 3037 3037 3038 3035 3035 3037 3037 3036 3036 3037 3036 3036 3037 3037 3036 3035 3035 3033 3034 3035 3033 3032 3031 3031 3032 3033 3033 3034 3034 3034 3035 3036 3036 3033 3029 3026 3027 3026 3023 3021 3017 3015 3018 3020 3018 3017 3016 3016 3017 3016 3015 3013 3010 3006 3003 3001 2996 2993 2993 2991 2994 2999 2999 2998 2998 2995 2992 2989 2988 2992 2993 2991 2989 2987 2986 2987
3034 3033 3035 3035 3033 3033 3032 3034 3034 3033 3033 3034 3032 3031 3032 3031 3031 3032 3032 3031 3031 3032 3032 3031 3032 3032 3030 3030 3031 3029 3029 3030 3029 3027 3027 3027 3027 3027 3028 3028 3028 3027 3029 3029 3029 3028 3023 3019 3020 3019 3015 3015 3014 3012 3015 3015 3012 3012 3013 3011 3013 3012 3010 3009 3003 2998 3002 2997 2984 2988 2995 2988 2987 2995 2994 2992 2993 2992 2991 2989 2986 2987 2985 2981 2980 2979 2979 2979
3029 3029 3030 3029 3028 3028 3027 3028 3028 3028 3028 3029 3028 3027 3028 3027 3027 3027 3027 3026 3026 3028 3028 3025 3025 3026 3026 3027 3027 3024 3024 3025 3023 3023 3023 3022 3021 3021 3022 3023 3021 3021 3022 3022 3022 3022 3018 3012 3014 3014 3010 3010 3011 3009 3010 3008 3005 3005 3006 3005 3006 3006 3004 3002 2996 2994 2998 2990 2979 2986 2991 2983 2982 2989 2988 2988 2989 2987 2987 2987 2983 2980 2974 2970 2970 2971 2970 2970
3024 3024 3024 3024 3022 3023 3023 3023 3023 3023 3023 3025 3024 3023 3023 3022 3022 3023 3023 3023 3021 3022 3023 3020 3020 3021 3021 3022 3022 3020 3020 3020 3019 3019 3018 3017 3017 3016 3016 3017 3016 3016 3016 3015 3015 3016 3012 3008 3009 3009 3005 3005 3007 3005 3004 3002 2999 2998 2999 3000 3000 2999 2997 2994 2989 2989 2990 2983 2978 2982 2980 2976 2979 2982 2982 2983 2983 2981 2981 2979 2975 2970 2966 2964 2964 2962 2961 2962
3019 3018 3019 3018 3017 3019 3019 3018 3019 3018 3018 3020 3019 3018 3019 3018 3018 3019 3019 3019 3017 3018 3019 3016 3015 3016 3015 3016 3016 3015 3015 3016 3014 3014 3013 3012 3013 3012 3011 3012 3012 3012 3012 3011 3010 3011 3009 3005 3005 3004 3000 2999 3001 3001 2999 2998 2995 2993 2993 2993 2994 2992 2989 2986 2984 2984 2982 2976 2975 2975 2971 2969 2973 2974 2973 2973 2973 2972 2972 2970 2966 2963 2961 2960 2959 2957 2956 2955
3014 3012 3013 3013 3012 3014 3014 3013 3015 3014 3012 3014 3013 3012 3015 3015 3014 3014 3014 3013 3013 3014 3015 3013 3010 3010 3010 3010 3011 3009 3009 3010 3009 3008 3008 3007 3008 3008 3007 3007 3008 3007 3006 3006 3006 3006 3005 3001 3001 3002 2996 2993 2996 2996 2994 2994 2992 2989 2988 2988 2987 2984 2982 2981 2980 2979 2976 2971 2969 2969 2966 2963 2963 2964 2965 2966 2965 2964 2964 2963 2960 2958 2957 2956 2954 2952 2951 2948
3009 3007 3008 3007 3006 3009 3009 3007 3009 3008 3006 3008 3008 3007 3009 3010 3009 3009 3009 3008 3008 3008 3009 3008 3007 3006 3005 3005 3006 3005 3004 3004 3003 3002 3003 3002 3002 3002 3001 3001 3003 3002 3000 3001 3000 3000 3000 2997 2998 2999 2992 2987 2990 2991 2989 2990 2986 2981 2982 2982 2980 2979 2977 2975 2974 2973 2972 2968 2965 2963 2961 2958 2956 2957 2960 2960 2958 2956 2956 2956 2953 2952 2952 2950 2949 2947 2945 2943